Total_Precipitation_Accumulation
0.61 0.85 1.11 1.05 0.96 1.02 1.06 1.16 1.19 1.11 0.84 0.85 0.85 0.71 0.66 0.68 0.72 0.71 0.64 0.55 0.53 0.55 0.53 0.51 0.53 0.59 0.60 0.62 0.64 0.63 0.61 0.69 0.73 0.78 0.92 1.15 1.43 1.53 1.63 1.55 1.35 1.28 1.40 1.69
0.70 0.76 0.65 0.60 0.69 0.89 1.04 1.23 1.20 1.08 0.76 0.71 0.72 0.62 0.53 0.53 0.61 0.57 0.56 0.54 0.48 0.49 0.44 0.40 0.42 0.45 0.47 0.50 0.55 0.58 0.57 0.65 0.71 0.75 0.92 1.10 1.26 1.26 1.43 1.55 1.51 1.44 1.41 1.56
0.68 0.63 0.50 0.54 0.69 0.92 1.02 1.05 1.02 0.99 0.80 0.69 0.65 0.69 0.51 0.46 0.49 0.46 0.44 0.47 0.42 0.43 0.43 0.40 0.38 0.38 0.39 0.40 0.39 0.42 0.47 0.54 0.66 0.81 1.02 1.25 1.47 1.54 1.57 1.48 1.56 1.57 1.48 1.54
0.61 0.51 0.49 0.61 0.69 0.77 0.95 0.70 0.64 0.70 0.90 0.96 0.76 0.95 0.63 0.51 0.53 0.47 0.41 0.38 0.37 0.39 0.41 0.46 0.41 0.43 0.40 0.37 0.34 0.36 0.46 0.60 0.80 1.00 1.23 1.48 1.69 1.73 1.60 1.59 1.63 1.52 1.43 1.42
0.55 0.45 0.47 0.60 0.57 0.55 0.64 0.54 0.52 0.60 0.79 0.78 0.59 0.72 0.63 0.50 0.59 0.55 0.47 0.42 0.38 0.36 0.39 0.41 0.40 0.43 0.44 0.42 0.42 0.47 0.66 0.88 1.14 1.36 1.63 1.92 1.89 1.77 1.66 1.62 1.61 1.55 1.53 1.50
0.46 0.38 0.43 0.45 0.44 0.43 0.46 0.54 0.59 0.66 0.85 0.85 0.52 0.60 0.66 0.49 0.50 0.52 0.50 0.45 0.38 0.33 0.40 0.48 0.54 0.63 0.69 0.71 0.85 1.03 1.28 1.44 1.54 1.66 1.83 1.95 1.90 1.88 1.82 1.64 1.56 1.55 1.59 1.64
0.49 0.40 0.34 0.31 0.43 0.43 0.47 0.79 1.14 1.17 1.15 0.83 0.43 0.61 0.67 0.46 0.37 0.38 0.42 0.37 0.31 0.36 0.46 0.61 0.78 0.92 1.05 1.20 1.35 1.48 1.62 1.76 1.71 1.68 1.76 1.81 1.78 1.75 1.73 1.66 1.59 1.52 1.52 1.56
0.56 0.53 0.33 0.26 0.34 0.45 0.48 0.72 1.19 1.32 1.10 0.77 0.56 0.82 0.75 0.53 0.39 0.31 0.25 0.25 0.35 0.50 0.64 0.77 0.85 0.97 1.15 1.32 1.40 1.40 1.48 1.60 1.58 1.55 1.55 1.55 1.59 1.58 1.53 1.44 1.41 1.44 1.52 1.50
0.40 0.41 0.21 0.19 0.24 0.31 0.47 0.52 0.58 0.83 0.71 0.71 0.75 0.88 0.77 0.51 0.43 0.34 0.29 0.33 0.48 0.70 0.91 1.07 1.19 1.30 1.34 1.40 1.48 1.40 1.38 1.45 1.48 1.43 1.38 1.40 1.41 1.45 1.44 1.36 1.36 1.33 1.32 1.25
0.25 0.31 0.20 0.18 0.23 0.26 0.37 0.50 0.67 0.99 1.13 1.12 1.01 1.00 0.88 0.65 0.56 0.56 0.63 0.72 0.77 0.87 1.15 1.45 1.73 1.89 1.70 1.45 1.39 1.39 1.31 1.33 1.44 1.45 1.39 1.36 1.42 1.43 1.40 1.39 1.33 1.30 1.30 1.21
0.19 0.30 0.27 0.24 0.29 0.30 0.38 0.54 0.69 0.91 1.03 1.33 1.52 1.43 1.07 1.05 1.03 1.06 1.15 1.19 1.20 1.30 1.28 1.45 1.69 1.88 1.78 1.46 1.25 1.30 1.36 1.36 1.39 1.39 1.41 1.39 1.36 1.25 1.24 1.26 1.23 1.19 1.17 1.21
0.16 0.27 0.31 0.24 0.26 0.33 0.48 0.62 0.80 1.16 1.09 1.08 1.37 1.44 1.12 1.09 1.10 1.17 1.33 1.39 1.38 1.29 1.20 1.19 1.27 1.35 1.41 1.28 1.08 1.06 1.22 1.32 1.32 1.31 1.34 1.33 1.21 1.12 1.10 1.09 1.01 0.89 0.84 0.84
0.21 0.33 0.46 0.46 0.53 0.54 0.70 0.75 0.64 0.68 0.82 0.96 1.24 1.15 0.77 0.70 0.86 1.02 1.16 1.23 1.16 1.11 1.21 1.18 1.10 1.05 1.08 1.06 0.99 0.97 1.11 1.26 1.32 1.31 1.20 1.09 1.03 1.00 1.01 0.94 0.88 0.83 0.72 0.68
0.21 0.28 0.39 0.57 0.58 0.57 0.74 0.83 0.69 0.66 0.83 0.81 0.78 0.70 0.53 0.56 0.71 0.78 0.82 0.81 0.81 0.88 0.92 0.89 0.85 0.78 0.76 0.80 0.85 0.91 1.04 1.13 1.26 1.38 1.29 1.15 1.05 1.01 0.97 0.92 0.88 0.82 0.77 0.77
0.17 0.18 0.17 0.20 0.22 0.31 0.50 0.60 0.52 0.44 0.44 0.54 0.49 0.48 0.53 0.59 0.67 0.63 0.57 0.56 0.54 0.54 0.53 0.55 0.60 0.59 0.52 0.51 0.52 0.63 0.79 0.95 1.15 1.39 1.38 1.24 1.17 1.10 0.97 0.89 0.89 0.87 0.89 0.85
0.15 0.17 0.15 0.13 0.14 0.19 0.30 0.34 0.28 0.22 0.27 0.37 0.42 0.49 0.53 0.60 0.66 0.60 0.51 0.43 0.37 0.35 0.37 0.40 0.42 0.47 0.39 0.33 0.35 0.38 0.50 0.70 0.87 1.07 1.16 1.13 1.04 0.92 0.88 0.88 0.83 0.79 0.78 0.75
0.15 0.18 0.21 0.15 0.13 0.18 0.26 0.24 0.24 0.27 0.28 0.32 0.43 0.54 0.57 0.69 0.88 0.78 0.60 0.49 0.37 0.31 0.30 0.33 0.35 0.39 0.40 0.37 0.34 0.36 0.43 0.52 0.64 0.81 0.93 0.92 0.87 0.77 0.75 0.77 0.73 0.68 0.62 0.62
0.12 0.21 0.30 0.26 0.29 0.40 0.35 0.26 0.33 0.43 0.37 0.36 0.47 0.53 0.62 0.93 1.13 0.76 0.53 0.47 0.40 0.32 0.31 0.31 0.33 0.34 0.33 0.34 0.35 0.36 0.38 0.40 0.46 0.56 0.63 0.66 0.66 0.64 0.64 0.64 0.62 0.63 0.58 0.54
0.08 0.21 0.36 0.39 0.41 0.56 0.47 0.27 0.39 0.46 0.42 0.34 0.43 0.50 0.51 0.55 0.49 0.32 0.21 0.22 0.25 0.21 0.21 0.21 0.21 0.21 0.22 0.23 0.26 0.29 0.33 0.35 0.34 0.37 0.42 0.47 0.49 0.53 0.57 0.58 0.59 0.68 0.66 0.61
0.09 0.16 0.32 0.36 0.40 0.45 0.42 0.24 0.27 0.38 0.47 0.24 0.25 0.27 0.22 0.17 0.17 0.18 0.17 0.12 0.12 0.11 0.12 0.13 0.12 0.11 0.14 0.17 0.20 0.23 0.27 0.31 0.31 0.32 0.35 0.39 0.41 0.44 0.50 0.57 0.57 0.55 0.53 0.56
0.12 0.18 0.26 0.30 0.32 0.25 0.20 0.20 0.25 0.45 0.47 0.20 0.17 0.16 0.13 0.12 0.11 0.15 0.17 0.12 0.10 0.08 0.09 0.10 0.10 0.11 0.13 0.16 0.19 0.21 0.27 0.29 0.30 0.36 0.38 0.39 0.40 0.42 0.45 0.44 0.40 0.41 0.46 0.44
0.17 0.24 0.25 0.27 0.32 0.27 0.19 0.22 0.29 0.29 0.19 0.16 0.18 0.16 0.14 0.11 0.10 0.11 0.13 0.10 0.08 0.08 0.08 0.08 0.10 0.13 0.12 0.14 0.18 0.21 0.27 0.29 0.30 0.32 0.33 0.32 0.32 0.33 0.36 0.38 0.35 0.34 0.39 0.41
0.18 0.23 0.29 0.32 0.30 0.25 0.23 0.25 0.23 0.22 0.20 0.18 0.21 0.17 0.14 0.13 0.11 0.10 0.10 0.09 0.08 0.08 0.09 0.10 0.12 0.18 0.21 0.17 0.19 0.23 0.28 0.32 0.30 0.28 0.26 0.28 0.27 0.29 0.29 0.31 0.35 0.38 0.38 0.39
0.17 0.15 0.21 0.26 0.22 0.20 0.20 0.20 0.21 0.21 0.20 0.17 0.18 0.16 0.15 0.16 0.15 0.13 0.11 0.11 0.09 0.08 0.09 0.12 0.17 0.21 0.25 0.23 0.23 0.26 0.28 0.30 0.29 0.26 0.25 0.25 0.26 0.26 0.25 0.28 0.31 0.33 0.35 0.36
0.16 0.17 0.19 0.23 0.19 0.18 0.16 0.16 0.15 0.15 0.14 0.15 0.15 0.14 0.14 0.15 0.16 0.14 0.11 0.11 0.10 0.09 0.08 0.12 0.18 0.21 0.22 0.23 0.27 0.31 0.30 0.26 0.26 0.25 0.25 0.23 0.26 0.27 0.25 0.23 0.26 0.30 0.34 0.41
0.13 0.16 0.21 0.23 0.17 0.18 0.16 0.13 0.11 0.12 0.11 0.11 0.13 0.13 0.12 0.12 0.12 0.12 0.12 0.13 0.12 0.10 0.11 0.13 0.15 0.18 0.19 0.21 0.25 0.27 0.27 0.24 0.24 0.26 0.25 0.24 0.22 0.23 0.24 0.26 0.24 0.27 0.32 0.41